Perth, Australia

2:37 PM AWST on April 29, 2017 (GMT +0800)
Perth International

Weather History for YPPH - November, 2013

Change the Weather History Date:

Tuesday, November 12, 2013

  Actual Average Record
Temperature  
Mean Temperature 72 °F -  
Max Temperature 84 °F 80 °F 102 °F (2007)
Min Temperature 59 °F 57 °F 41 °F (2016)
Cooling Degree Days 6    
Growing Degree Days 22 (Base 50)    
Moisture  
Dew Point 56 °F    
Average Humidity 60    
Maximum Humidity 94    
Minimum Humidity 25    
Precipitation  
Precipitation 0.00 in 0.02 in - ()
Sea Level Pressure  
Sea Level Pressure 29.87 in    
Wind  
Wind Speed 12 mph ()    
Max Wind Speed 20 mph    
Max Gust Speed -    
Visibility 13.9 miles    
Events      
Averages and records for this station are not official NWS values.
T = Trace of Precipitation, MM = Missing Value Source: Averaged Metar Reports

Daily Weather History Graph

Daily Weather History Graph

Search for Another Location

Airport or City:

Trip Planner

Search our weather history database for the weather conditions in past years. The results will help you decide how hot, cold, wet, or windy it might be!

Date:

Astronomy

Nov. 12, 2013 Rise Set
Actual Time 5:10 AM AWST 6:50 PM AWST
Civil Twilight 4:43 AM AWST 7:17 PM AWST
Nautical Twilight 4:11 AM AWST 7:49 PM AWST
Astronomical Twilight 3:38 AM AWST 8:22 PM AWST
Moon 1:46 PM AWST (11/12) 1:36 AM AWST (11/12)
Length of Visible Light 14h 33m
Length of Day
13h 40m
Waxing Gibbous, 71% of the Moon is Illuminated
Nov 12
Waxing Gibbous
Nov 17
Full
Nov 26
Last Quarter
Dec 3
New
Dec 9
First Quarter

Hourly Weather History & Observations

Time (AWST) Temp. Heat Index Dew Point Humidity Pressure Visibility Wind Dir Wind Speed Gust Speed Precip Events Conditions
12:00 AM 62.6 °F - 59.0 °F 88% 29.89 in - SSW 5.8 mph - N/A   Clear
12:30 AM 64.4 °F - 59.0 °F 83% 29.86 in - South 8.1 mph - N/A   Clear
1:00 AM 62.6 °F - 59.0 °F 88% 29.86 in - SSW 5.8 mph - N/A   Clear
1:30 AM 60.8 °F - 59.0 °F 94% 29.86 in - SSE 8.1 mph - N/A   Clear
2:00 AM 61 °F - 59 °F 92% 29.87 in - South 6.9 mph - -  
2:00 AM 60.8 °F - 59.0 °F 94% 29.86 in - South 6.9 mph - N/A   Clear
2:30 AM 62.6 °F - 59.0 °F 88% 29.86 in - South 8.1 mph - N/A   Clear
3:00 AM 62 °F - 59 °F 85% 29.87 in 16 mi South 9.2 mph - -   Partly Cloudy
3:00 AM 62.6 °F - 59.0 °F 88% 29.86 in - South 9.2 mph - N/A   Clear
3:30 AM 60.8 °F - 57.2 °F 88% 29.86 in - South 9.2 mph - N/A   Clear
4:00 AM 60.8 °F - 55.4 °F 82% 29.86 in - South 13.8 mph - N/A   Clear
4:30 AM 60.8 °F - 55.4 °F 82% 29.86 in - South 13.8 mph - N/A   Clear
5:00 AM 59 °F - 55 °F 82% 29.89 in - South 13.8 mph - -  
5:00 AM 59.0 °F - 55.4 °F 88% 29.89 in - South 13.8 mph - N/A   Clear
5:30 AM 59.0 °F - 53.6 °F 82% 29.89 in - South 17.3 mph - N/A   Clear
6:00 AM 60 °F - 54 °F 74% 29.92 in 12 mi South 17.3 mph - -   Smoke
6:00 AM 59.0 °F - 53.6 °F 82% 29.92 in - South 17.3 mph - N/A   Clear
6:30 AM 60.8 °F - 53.6 °F 77% 29.92 in - South 18.4 mph - N/A   Clear
7:00 AM 62.6 °F - 53.6 °F 72% 29.92 in - South 17.3 mph - N/A   Clear
7:30 AM 64.4 °F - 55.4 °F 73% 29.92 in - South 18.4 mph - N/A   Clear
8:00 AM 66 °F - 54 °F 57% 29.93 in - South 17.3 mph - -  
8:00 AM 66.2 °F - 55.4 °F 68% 29.92 in - South 17.3 mph - N/A   Clear
8:30 AM 68.0 °F - 55.4 °F 64% 29.92 in - SSW 17.3 mph - N/A   Clear
9:00 AM 69 °F - 54 °F 50% 29.93 in 9 mi South 15.0 mph - -   Smoke
9:00 AM 69.8 °F - 55.4 °F 60% 29.92 in - South 15.0 mph - N/A   Clear
9:30 AM 71.6 °F - 55.4 °F 57% 29.92 in - South 13.8 mph - N/A   Clear
10:00 AM 73.4 °F - 55.4 °F 53% 29.92 in - South 12.7 mph - N/A   Clear
10:30 AM 77.0 °F - 55.4 °F 47% 29.89 in - SSW 13.8 mph - N/A   Clear
11:00 AM 78 °F - 56 °F 36% 29.90 in - SW 12.7 mph - -  
11:00 AM 77.0 °F - 55.4 °F 47% 29.89 in - SW 12.7 mph - N/A   Clear
11:30 AM 78.8 °F - 53.6 °F 42% 29.89 in - SSW 11.5 mph - N/A   Clear
12:00 PM 82 °F - 52 °F 25% 29.88 in 16 mi South 11.5 mph - -   Partly Cloudy
12:00 PM 82.4 °F - 51.8 °F 35% 29.86 in - South 11.5 mph - N/A   Clear
12:30 PM 82.4 °F - 51.8 °F 35% 29.86 in - SSW 11.5 mph - N/A   Clear
1:00 PM 84.2 °F - 51.8 °F 33% 29.86 in - SW 15.0 mph - N/A   Clear
1:30 PM 82.4 °F 82.0 °F 57.2 °F 42% 29.86 in - WSW 19.6 mph - N/A   Clear
2:00 PM 81 °F - 57 °F 33% 29.86 in - WSW 17.3 mph - -  
2:00 PM 80.6 °F 80.8 °F 57.2 °F 45% 29.86 in - WSW 17.3 mph - N/A   Clear
2:30 PM 82.4 °F 82.0 °F 57.2 °F 42% 29.83 in - SW 15.0 mph - N/A   Clear
3:00 PM 83 °F - 58 °F 33% 29.84 in 12 mi SW 16.1 mph - -   Haze
3:00 PM 84.2 °F 83.8 °F 59.0 °F 42% 29.83 in - SW 16.1 mph - N/A   Clear
3:30 PM 80.6 °F 80.8 °F 57.2 °F 45% 29.83 in - WSW 17.3 mph - N/A   Clear
4:00 PM 80.6 °F 80.8 °F 57.2 °F 45% 29.83 in - SW 19.6 mph - N/A   Clear
4:30 PM 78.8 °F - 57.2 °F 47% 29.83 in - SSW 18.4 mph - N/A   Clear
5:00 PM 78 °F - 56 °F 36% 29.84 in - SW 17.3 mph - -  
5:00 PM 78.8 °F - 55.4 °F 44% 29.83 in - SW 17.3 mph - N/A   Clear
5:30 PM 78.8 °F - 57.2 °F 47% 29.83 in - SW 16.1 mph - N/A   Clear
6:00 PM 77 °F - 57 °F 39% 29.85 in 16 mi SW 17.3 mph - -   Partly Cloudy
6:00 PM 77.0 °F - 57.2 °F 50% 29.83 in - SW 17.3 mph - N/A   Clear
6:30 PM 75.2 °F - 57.2 °F 53% 29.83 in - SSW 17.3 mph - N/A   Clear
7:00 PM 73.4 °F - 57.2 °F 57% 29.86 in - SSW 16.1 mph - N/A   Clear
7:30 PM 71.6 °F - 57.2 °F 60% 29.83 in - SSW 18.4 mph - N/A   Clear
8:00 PM 71 °F - 56 °F 50% 29.86 in - South 18.4 mph - -  
8:00 PM 71.6 °F - 55.4 °F 57% 29.86 in - South 18.4 mph - N/A   Clear
8:30 PM 71.6 °F - 55.4 °F 57% 29.86 in - South 19.6 mph - N/A   Clear
9:00 PM 70 °F - 54 °F 47% 29.88 in 16 mi South 18.4 mph - -   Partly Cloudy
9:00 PM 69.8 °F - 53.6 °F 56% 29.86 in - South 18.4 mph - N/A   Clear
9:30 PM 68.0 °F - 53.6 °F 60% 29.89 in - South 13.8 mph - N/A   Clear
10:00 PM 68.0 °F - 55.4 °F 64% 29.89 in - South 12.7 mph - N/A   Clear
10:30 PM 68.0 °F - 51.8 °F 56% 29.89 in - SSE 12.7 mph - N/A   Clear
11:00 PM 67 °F - 51 °F 47% 29.91 in - SSE 16.1 mph - -  
11:00 PM 68.0 °F - 51.8 °F 56% 29.89 in - SSE 16.1 mph - N/A   Clear
11:30 PM 66.2 °F - 51.8 °F 60% 29.92 in - SSE 13.8 mph - N/A   Clear